Météo par heure à Jureczkowa

Ce jour, 17 Juin, Jeudi

Heure Température Précipitation Vent Pression Humidité
00:00 +15°C° 0 mm 1 m/s 723 mmHg 92%
01:00 +13°C° 0 mm 0 m/s 723 mmHg 93%
02:00 +13°C° 0 mm 0 m/s 723 mmHg 93%
03:00 +13°C° 0 mm 0 m/s 722 mmHg 93%
04:00 +13°C° 0 mm 0 m/s 722 mmHg 94%
05:00 +13°C° 0 mm 0 m/s 722 mmHg 94%
06:00 +15°C° 0 mm 1 m/s 723 mmHg 88%
07:00 +18°C° 0 mm 1 m/s 723 mmHg 82%
08:00 +19°C° 0 mm 2 m/s 724 mmHg 76%
09:00 +20°C° 0 mm 2 m/s 724 mmHg 70%
10:00 +22°C° 0 mm 3 m/s 724 mmHg 63%
11:00 +24°C° 0 mm 3 m/s 724 mmHg 56%
12:00 +24°C° 0 mm 3 m/s 724 mmHg 53%
13:00 +25°C° 0 mm 3 m/s 724 mmHg 50%
14:00 +25°C° 0 mm 3 m/s 724 mmHg 47%
15:00 +25°C° 0 mm 3 m/s 724 mmHg 49%
16:00 +24°C° 0 mm 3 m/s 724 mmHg 51%
17:00 +24°C° 0 mm 3 m/s 724 mmHg 52%
18:00 +21°C° 0 mm 3 m/s 724 mmHg 62%
19:00 +20°C° 0 mm 2 m/s 724 mmHg 72%
20:00 +18°C° 0 mm 2 m/s 723 mmHg 81%
21:00 +18°C° 0 mm 1 m/s 724 mmHg 86%
22:00 +18°C° 0 mm 1 m/s 724 mmHg 90%
23:00 +16°C° 0 mm 1 m/s 724 mmHg 94%

Demain, 18 Juin, Vendredi

Heure Température Précipitation Vent Pression Humidité
00:00 +16°C° 0 mm 1 m/s 724 mmHg 94%
01:00 +15°C° 0 mm 1 m/s 723 mmHg 95%
02:00 +15°C° 0 mm 1 m/s 723 mmHg 95%
03:00 +15°C° 0 mm 1 m/s 723 mmHg 95%
04:00 +15°C° 0 mm 1 m/s 723 mmHg 95%
05:00 +15°C° 0 mm 1 m/s 723 mmHg 95%
06:00 +16°C° 0 mm 2 m/s 723 mmHg 88%
07:00 +18°C° 0 mm 3 m/s 724 mmHg 80%
08:00 +20°C° 0 mm 3 m/s 724 mmHg 73%
09:00 +22°C° 0 mm 4 m/s 724 mmHg 67%
10:00 +23°C° 0 mm 4 m/s 724 mmHg 62%
11:00 +25°C° 0 mm 5 m/s 724 mmHg 57%
12:00 +26°C° 0 mm 5 m/s 724 mmHg 56%
13:00 +26°C° 0 mm 5 m/s 723 mmHg 54%
14:00 +27°C° 0 mm 5 m/s 723 mmHg 53%
15:00 +27°C° 0 mm 5 m/s 723 mmHg 56%
16:00 +26°C° 0 mm 5 m/s 723 mmHg 59%
17:00 +26°C° 0 mm 5 m/s 723 mmHg 61%
18:00 +23°C° 0 mm 4 m/s 723 mmHg 69%
19:00 +22°C° 0 mm 4 m/s 723 mmHg 77%
20:00 +21°C° 0 mm 3 m/s 722 mmHg 84%
21:00 +19°C° 0 mm 3 m/s 722 mmHg 88%
22:00 +18°C° 0 mm 2 m/s 722 mmHg 92%
23:00 +17°C° 0 mm 2 m/s 722 mmHg 96%

Après-demain, 19 Juin, Samedi

Heure Température Précipitation Vent Pression Humidité
00:00 +17°C° 0 mm 2 m/s 722 mmHg 96%
01:00 +16°C° 0 mm 1 m/s 722 mmHg 97%
02:00 +16°C° 0 mm 1 m/s 722 mmHg 97%
03:00 +16°C° 0 mm 1 m/s 722 mmHg 97%
04:00 +16°C° 0 mm 2 m/s 722 mmHg 97%
05:00 +15°C° 0 mm 2 m/s 722 mmHg 98%
06:00 +17°C° 0 mm 2 m/s 722 mmHg 89%
07:00 +19°C° 0 mm 3 m/s 722 mmHg 81%
08:00 +21°C° 0 mm 4 m/s 722 mmHg 73%
09:00 +22°C° 0 mm 4 m/s 722 mmHg 67%
10:00 +23°C° 0 mm 5 m/s 722 mmHg 60%
11:00 +25°C° 0 mm 5 m/s 722 mmHg 54%
12:00 +26°C° 0 mm 5 m/s 722 mmHg 54%
13:00 +26°C° 0 mm 5 m/s 722 mmHg 54%
14:00 +27°C° 0 mm 5 m/s 722 mmHg 54%
15:00 +26°C° 0 mm 5 m/s 722 mmHg 58%
16:00 +25°C° 0 mm 5 m/s 722 mmHg 62%
17:00 +23°C° 0 mm 5 m/s 721 mmHg 66%
18:00 +22°C° 0 mm 4 m/s 721 mmHg 73%
19:00 +21°C° 0 mm 4 m/s 721 mmHg 80%
20:00 +19°C° 0 mm 3 m/s 721 mmHg 88%
21:00 +18°C° 0 mm 3 m/s 721 mmHg 91%
22:00 +17°C° 0 mm 2 m/s 721 mmHg 94%
23:00 +16°C° 0 mm 1 m/s 721 mmHg 97%

20 Juin, Dimanche

Heure Température Précipitation Vent Pression Humidité
00:00 +16°C° 0 mm 1 m/s 721 mmHg 97%
01:00 +15°C° 0 mm 1 m/s 720 mmHg 97%
02:00 +15°C° 0 mm 1 m/s 720 mmHg 98%
03:00 +15°C° 0 mm 1 m/s 720 mmHg 97%
04:00 +15°C° 0 mm 1 m/s 720 mmHg 97%
05:00 +15°C° 0 mm 1 m/s 720 mmHg 97%
06:00 +16°C° 0 mm 1 m/s 720 mmHg 90%
07:00 +19°C° 0 mm 1 m/s 720 mmHg 82%
08:00 +20°C° 0 mm 2 m/s 721 mmHg 75%
09:00 +23°C° 0 mm 2 m/s 721 mmHg 69%
10:00 +24°C° 0 mm 2 m/s 721 mmHg 62%
11:00 +26°C° 0 mm 2 m/s 720 mmHg 55%
12:00 +27°C° 0 mm 3 m/s 720 mmHg 53%
13:00 +27°C° 0 mm 3 m/s 720 mmHg 51%
14:00 +28°C° 0 mm 3 m/s 720 mmHg 49%
15:00 +27°C° 0 mm 3 m/s 719 mmHg 55%
16:00 +27°C° 0 mm 3 m/s 719 mmHg 60%
17:00 +26°C° 0 mm 3 m/s 719 mmHg 65%
18:00 +25°C° 0.1 mm 3 m/s 719 mmHg 71%
19:00 +22°C° 0.1 mm 3 m/s 719 mmHg 78%
20:00 +21°C° 0.1 mm 2 m/s 718 mmHg 84%
21:00 +20°C° 0 mm 2 m/s 718 mmHg 88%
22:00 +19°C° 0 mm 2 m/s 718 mmHg 91%
23:00 +19°C° 0 mm 1 m/s 718 mmHg 95%

21 Juin, Lundi

Heure Température Précipitation Vent Pression Humidité
00:00 +18°C° 0 mm 1 m/s 718 mmHg 95%
01:00 +18°C° 0 mm 1 m/s 717 mmHg 95%
02:00 +16°C° 0 mm 1 m/s 717 mmHg 95%
03:00 +16°C° 0 mm 1 m/s 717 mmHg 95%
04:00 +16°C° 0 mm 1 m/s 717 mmHg 95%
05:00 +16°C° 0 mm 1 m/s 717 mmHg 95%
06:00 +19°C° 0 mm 1 m/s 717 mmHg 88%
07:00 +19°C° 0 mm 2 m/s 717 mmHg 81%
08:00 +21°C° 0 mm 2 m/s 717 mmHg 75%
09:00 +24°C° 0.1 mm 2 m/s 717 mmHg 70%
10:00 +25°C° 0.1 mm 2 m/s 717 mmHg 65%
11:00 +26°C° 0.1 mm 2 m/s 717 mmHg 61%
12:00 +27°C° 0.4 mm 2 m/s 717 mmHg 59%
13:00 +27°C° 0.4 mm 2 m/s 717 mmHg 58%
14:00 +28°C° 0.4 mm 2 m/s 717 mmHg 57%
15:00 +28°C° 0.2 mm 2 m/s 717 mmHg 58%
16:00 +27°C° 0.2 mm 2 m/s 717 mmHg 60%
17:00 +27°C° 0.2 mm 3 m/s 716 mmHg 61%
18:00 +25°C° 0.4 mm 2 m/s 716 mmHg 69%
19:00 +24°C° 0.4 mm 2 m/s 716 mmHg 76%
20:00 +22°C° 0.4 mm 1 m/s 716 mmHg 84%
21:00 +20°C° 0 mm 2 m/s 716 mmHg 85%
22:00 +19°C° 0 mm 2 m/s 716 mmHg 87%
23:00 +18°C° 0 mm 2 m/s 716 mmHg 89%

22 Juin, Mardi

Heure Température Précipitation Vent Pression Humidité
00:00 +18°C° 0 mm 2 m/s 716 mmHg 88%
01:00 +18°C° 0 mm 2 m/s 715 mmHg 88%
02:00 +18°C° 0 mm 2 m/s 715 mmHg 87%
03:00 +18°C° 0 mm 2 m/s 715 mmHg 87%
04:00 +18°C° 0 mm 2 m/s 715 mmHg 88%
05:00 +18°C° 0 mm 2 m/s 716 mmHg 88%
06:00 +20°C° 0 mm 2 m/s 716 mmHg 82%
07:00 +23°C° 0 mm 2 m/s 716 mmHg 76%
08:00 +25°C° 0 mm 2 m/s 716 mmHg 70%
09:00 +25°C° 0.5 mm 2 m/s 716 mmHg 70%
10:00 +26°C° 0.5 mm 2 m/s 716 mmHg 71%
11:00 +27°C° 0.5 mm 2 m/s 717 mmHg 72%
12:00 +27°C° 1.8 mm 2 m/s 717 mmHg 72%
13:00 +27°C° 1.8 mm 2 m/s 717 mmHg 73%
14:00 +27°C° 1.8 mm 2 m/s 717 mmHg 74%
15:00 +26°C° 1.3 mm 1 m/s 717 mmHg 78%
16:00 +26°C° 1.3 mm 1 m/s 717 mmHg 82%
17:00 +25°C° 1.3 mm 1 m/s 717 mmHg 85%
18:00 +24°C° 0.4 mm 1 m/s 717 mmHg 86%
19:00 +24°C° 0.4 mm 1 m/s 718 mmHg 88%
20:00 +23°C° 0.4 mm 1 m/s 718 mmHg 89%
21:00 +22°C° 0.5 mm 1 m/s 718 mmHg 91%
22:00 +21°C° 0.5 mm 1 m/s 718 mmHg 93%
23:00 +20°C° 0.5 mm 1 m/s 718 mmHg 94%
Voir plus

Nous avons besoin de votre consentement

Meteoprog et ses fournisseurs de services peuvent stocker et accéder à des données personnelles telles que des cookies, des identifiants d'appareils ou d'autres technologies similaires sur votre appareil et traiter ces données pour personnaliser le contenu et les publicités, ainsi que pour fournir des fonctionnalités de médias sociaux et analyser le trafic.

  • Stocker et/ou accéder à des informations sur votre appareil

    Des cookies, des identifiants d'appareils ou d'autres informations peuvent être stockés ou accessibles sur votre appareil aux fins indiquées ci-dessus.

  • Annonces et contenus personnalisés, mesure des annonces et des contenus, connaissance de l'audience et développement de produits

    Les annonces et le contenu peuvent être personnalisés en fonction d'un profil. D'autres données peuvent être ajoutées pour mieux personnaliser les annonces et le contenu. Les performances des publicités et du contenu peuvent être mesurées. Il est possible d'obtenir des informations sur le public qui a vu les publicités et le contenu. Ces données peuvent être utilisées pour développer ou améliorer l'expérience de l'utilisateur, les systèmes et les logiciels.

En cliquant sur "J'accepte", vous autorisez l'utilisation de cookies, des identifiants d'appareils, des balises web ou d'autres technologies similaires. Vos paramètres peuvent être modifiés dans le navigateur de votre appareil.

Dans certains cas, des intérêts légitimes peuvent être invoqués plutôt qu'un consentement. Vous pouvez en savoir plus à ce sujet dans notre Politique de confidentialité et de cookies.